DLH07Y LOWS-EDDF

Flight info

Callsign DLH07Y
Flight time 0h 46m
Altitude 30000
Route INROM DCT SIMBA Y700 NENUM T161 DEBHI DEBHI1C
Aircraft A319/M-SDE3FGHIRWY/LB1

Departure

Time 2026-05-08 04:28
Airport Salzburg Airport (LOWS)

Arrival

Time 2026-05-08 05:15
Airport Frankfurt Main Airport (EDDF)
Time Latitude Longitude Altitude Speed Heading
2026-05-08 04:24 47.79211 12.99993 1415 ft 0 kts 337°
2026-05-08 04:24 47.79227 12.99984 1418 ft 8 kts 337°
2026-05-08 04:24 47.79295 12.99948 1415 ft 11 kts
2026-05-08 04:25 47.79344 13.00020 1417 ft 11 kts 70°
2026-05-08 04:25 47.79398 13.00087 1415 ft 13 kts 353°
2026-05-08 04:25 47.79503 13.00020 1417 ft 17 kts 336°
2026-05-08 04:25 47.79615 12.99947 1415 ft 18 kts 336°
2026-05-08 04:26 47.79730 12.99877 1415 ft 18 kts 338°
2026-05-08 04:26 47.79846 12.99807 1417 ft 18 kts 337°
2026-05-08 04:26 47.79965 12.99731 1415 ft 19 kts 336°
2026-05-08 04:26 47.80085 12.99654 1415 ft 19 kts 336°
2026-05-08 04:27 47.80211 12.99589 1421 ft 19 kts
2026-05-08 04:27 47.80285 12.99723 1416 ft 18 kts 72°
2026-05-08 04:27 47.80214 12.99841 1417 ft 20 kts 158°
2026-05-08 04:27 47.79869 13.00054 1415 ft 94 kts 156°
2026-05-08 04:28 47.79051 13.00579 1418 ft 159 kts 156°
2026-05-08 04:28 47.77983 13.01304 1886 ft 175 kts 153°
2026-05-08 04:28 47.76937 13.02227 2658 ft 174 kts 145°
2026-05-08 04:28 47.75982 13.03313 3663 ft 173 kts 139°
2026-05-08 04:29 47.75445 13.04919 4538 ft 181 kts 94°
2026-05-08 04:29 47.75772 13.06700 5426 ft 184 kts 52°
2026-05-08 04:29 47.76813 13.07739 6326 ft 183 kts 10°
2026-05-08 04:29 47.78057 13.07540 7182 ft 184 kts 336°
2026-05-08 04:30 47.79355 13.06934 7757 ft 209 kts 346°
2026-05-08 04:30 47.80887 13.06642 8318 ft 233 kts 352°
2026-05-08 04:30 47.82582 13.06452 8972 ft 255 kts 353°
2026-05-08 04:30 47.84422 13.06276 9733 ft 277 kts 353°
2026-05-08 04:31 47.86419 13.06079 10499 ft 299 kts 353°
2026-05-08 04:31 47.88588 13.05842 11120 ft 325 kts 353°
2026-05-08 04:31 47.90915 13.05574 11828 ft 343 kts 353°
2026-05-08 04:31 47.93327 13.05290 12833 ft 351 kts 353°
2026-05-08 04:32 47.95753 13.04999 13890 ft 357 kts 353°
2026-05-08 04:32 47.98282 13.04689 14853 ft 363 kts 352°
2026-05-08 04:32 48.00765 13.03947 15708 ft 365 kts 336°
2026-05-08 04:32 48.02963 13.02077 16535 ft 365 kts 317°
2026-05-08 04:33 48.04643 12.99250 17357 ft 365 kts 302°
2026-05-08 04:33 48.06082 12.96160 18158 ft 369 kts 301°
2026-05-08 04:33 48.07550 12.92983 18860 ft 373 kts 301°
2026-05-08 04:33 48.09033 12.89770 19522 ft 377 kts 301°
2026-05-08 04:34 48.10527 12.86521 20195 ft 381 kts 301°
2026-05-08 04:34 48.12036 12.83238 20859 ft 385 kts 301°
2026-05-08 04:34 48.13565 12.79922 21514 ft 389 kts 301°
2026-05-08 04:34 48.15112 12.76572 22153 ft 393 kts 301°
2026-05-08 04:35 48.16674 12.73193 22771 ft 397 kts 301°
2026-05-08 04:35 48.18251 12.69778 23373 ft 400 kts 300°
2026-05-08 04:35 48.19840 12.66330 23905 ft 404 kts 300°
2026-05-08 04:35 48.21441 12.62846 24400 ft 407 kts 300°
2026-05-08 04:36 48.23049 12.59341 24891 ft 409 kts 300°
2026-05-08 04:36 48.24667 12.55810 25365 ft 412 kts 300°
2026-05-08 04:36 48.26296 12.52251 25828 ft 415 kts 300°
2026-05-08 04:36 48.27935 12.48665 26306 ft 418 kts 300°
2026-05-08 04:37 48.29582 12.45056 26774 ft 421 kts 300°
2026-05-08 04:37 48.31240 12.41418 27236 ft 423 kts 300°
2026-05-08 04:37 48.32910 12.37745 27690 ft 426 kts 300°
2026-05-08 04:37 48.34018 12.35306 27990 ft 428 kts 300°
2026-05-08 04:38 48.34575 12.34080 28139 ft 429 kts 300°
2026-05-08 04:38 48.36263 12.30368 28576 ft 432 kts 299°
2026-05-08 04:38 48.37960 12.26620 28991 ft 435 kts 299°
2026-05-08 04:38 48.39665 12.22838 29404 ft 438 kts 299°
2026-05-08 04:39 48.41380 12.19038 29812 ft 440 kts 299°
2026-05-08 04:39 48.43112 12.15204 30060 ft 447 kts 299°
2026-05-08 04:39 48.46674 12.07303 30092 ft 465 kts 299°
2026-05-08 04:40 48.50369 11.99067 30087 ft 481 kts 299°
2026-05-08 04:40 48.54054 11.90862 30089 ft 468 kts 300°
2026-05-08 04:41 48.57690 11.82740 30086 ft 467 kts 299°
2026-05-08 04:41 48.61307 11.74599 30086 ft 467 kts 300°
2026-05-08 04:42 48.64922 11.66447 30088 ft 467 kts 300°
2026-05-08 04:42 48.68506 11.58333 30086 ft 467 kts 300°
2026-05-08 04:43 48.72109 11.50151 30081 ft 466 kts 300°
2026-05-08 04:43 48.75702 11.41979 30079 ft 466 kts 300°
2026-05-08 04:44 48.79287 11.33799 30083 ft 466 kts 300°
2026-05-08 04:44 48.82862 11.25608 30078 ft 465 kts 301°
2026-05-08 04:45 48.87152 11.18204 30081 ft 471 kts 315°
2026-05-08 04:45 48.91988 11.11484 30083 ft 470 kts 313°
2026-05-08 04:46 48.96240 11.03974 30095 ft 468 kts 307°
2026-05-08 04:46 49.00417 10.96365 30107 ft 468 kts 307°
2026-05-08 04:47 49.04584 10.88734 30113 ft 468 kts 307°
2026-05-08 04:47 49.08749 10.81091 30114 ft 468 kts 307°
2026-05-08 04:48 49.12918 10.73437 30112 ft 469 kts 307°
2026-05-08 04:48 49.17075 10.65775 30096 ft 469 kts 307°
2026-05-08 04:49 49.21228 10.58082 30095 ft 469 kts 307°
2026-05-08 04:49 49.25382 10.50376 30089 ft 469 kts 307°
2026-05-08 04:50 49.29535 10.42657 30097 ft 470 kts 308°
2026-05-08 04:50 49.33656 10.34967 30092 ft 470 kts 308°
2026-05-08 04:51 49.37800 10.27211 30097 ft 470 kts 308°
2026-05-08 04:51 49.41934 10.19459 30094 ft 469 kts 308°
2026-05-08 04:52 49.46055 10.11693 30074 ft 469 kts 308°
2026-05-08 04:52 49.50161 10.03927 30086 ft 466 kts 308°
2026-05-08 04:53 49.54250 9.96185 30086 ft 465 kts 308°
2026-05-08 04:53 49.56267 9.92360 30071 ft 450 kts 308°
2026-05-08 04:53 49.58203 9.88687 29776 ft 435 kts 309°
2026-05-08 04:54 49.60092 9.85095 29041 ft 429 kts 309°
2026-05-08 04:54 49.61969 9.81520 28129 ft 429 kts 309°
2026-05-08 04:54 49.63846 9.77936 27259 ft 428 kts 309°
2026-05-08 04:54 49.65704 9.74382 26572 ft 423 kts 309°
2026-05-08 04:55 49.67520 9.70902 25915 ft 419 kts 309°
2026-05-08 04:55 49.69340 9.67416 25342 ft 413 kts 309°
2026-05-08 04:55 49.71103 9.64032 25211 ft 396 kts 309°
2026-05-08 04:55 49.72800 9.60774 25085 ft 382 kts 309°
2026-05-08 04:56 49.74438 9.57624 24968 ft 370 kts 309°
2026-05-08 04:56 49.76022 9.54569 24845 ft 357 kts 309°
2026-05-08 04:56 49.77545 9.51626 24723 ft 344 kts 309°
2026-05-08 04:56 49.79017 9.48786 24602 ft 332 kts 309°
2026-05-08 04:57 49.80435 9.46047 24479 ft 321 kts 309°
2026-05-08 04:57 49.81806 9.43392 24292 ft 312 kts 309°
2026-05-08 04:57 49.83151 9.40783 23982 ft 308 kts 309°
2026-05-08 04:57 49.84484 9.38198 23658 ft 306 kts 309°
2026-05-08 04:58 49.85715 9.35517 23266 ft 304 kts 301°
2026-05-08 04:58 49.86631 9.32580 22881 ft 303 kts 291°
2026-05-08 04:58 49.87256 9.29475 22509 ft 301 kts 287°
2026-05-08 04:58 49.87845 9.26364 22143 ft 299 kts 287°
2026-05-08 04:59 49.88434 9.23279 21797 ft 298 kts 287°
2026-05-08 04:59 49.89021 9.20209 21453 ft 296 kts 287°
2026-05-08 04:59 49.89604 9.17153 21116 ft 295 kts 287°
2026-05-08 04:59 49.89988 9.15141 20901 ft 294 kts 287°
2026-05-08 05:00 49.90564 9.12111 20566 ft 292 kts 287°
2026-05-08 05:00 49.91137 9.09097 20251 ft 291 kts 287°
2026-05-08 05:00 49.91706 9.06098 19931 ft 289 kts 287°
2026-05-08 05:00 49.92274 9.03102 19624 ft 288 kts 287°
2026-05-08 05:01 49.92842 9.00128 19317 ft 287 kts 287°
2026-05-08 05:01 49.93409 8.97167 19022 ft 286 kts 288°
2026-05-08 05:01 49.93975 8.94219 18734 ft 285 kts 288°
2026-05-08 05:01 49.94364 8.91217 18386 ft 286 kts 273°
2026-05-08 05:02 49.94120 8.88080 17663 ft 299 kts 261°
2026-05-08 05:02 49.93732 8.84857 16996 ft 309 kts 261°
2026-05-08 05:02 49.93331 8.81535 16342 ft 317 kts 261°
2026-05-08 05:02 49.92924 8.78137 15698 ft 324 kts 261°
2026-05-08 05:03 49.92509 8.74670 15071 ft 329 kts 261°
2026-05-08 05:03 49.92087 8.71156 14454 ft 334 kts 261°
2026-05-08 05:03 49.91659 8.67592 13851 ft 338 kts 261°
2026-05-08 05:03 49.91225 8.63998 13172 ft 340 kts 261°
2026-05-08 05:04 49.90790 8.60408 12494 ft 335 kts 261°
2026-05-08 05:04 49.90362 8.56906 11850 ft 326 kts 261°
2026-05-08 05:04 49.89952 8.53549 11227 ft 317 kts 261°
2026-05-08 05:04 49.89542 8.50186 10601 ft 309 kts 262°
2026-05-08 05:05 49.89151 8.46988 9997 ft 302 kts 262°
2026-05-08 05:05 49.88767 8.43817 9382 ft 295 kts 262°
2026-05-08 05:05 49.88392 8.40742 8825 ft 286 kts 261°
2026-05-08 05:05 49.88026 8.37752 8258 ft 279 kts 261°
2026-05-08 05:06 49.87668 8.34829 7697 ft 273 kts 261°
2026-05-08 05:06 49.87317 8.31972 7134 ft 267 kts 261°
2026-05-08 05:06 49.86971 8.29175 6599 ft 262 kts 261°
2026-05-08 05:06 49.86627 8.26426 6015 ft 257 kts 261°
2026-05-08 05:07 49.86291 8.23727 5458 ft 253 kts 261°
2026-05-08 05:07 49.85937 8.21077 4893 ft 249 kts 258°
2026-05-08 05:07 49.85608 8.18477 4310 ft 242 kts 274°
2026-05-08 05:07 49.86086 8.16112 4041 ft 222 kts 307°
2026-05-08 05:08 49.87252 8.14628 4017 ft 219 kts 330°
2026-05-08 05:08 49.88650 8.13695 4035 ft 220 kts 343°
2026-05-08 05:08 49.90170 8.13405 4020 ft 222 kts
2026-05-08 05:08 49.91678 8.13929 4015 ft 225 kts 21°
2026-05-08 05:09 49.93002 8.15232 4016 ft 229 kts 40°
2026-05-08 05:09 49.93971 8.17207 4014 ft 233 kts 61°
2026-05-08 05:09 49.94573 8.19561 4018 ft 235 kts 67°
2026-05-08 05:09 49.95148 8.21935 4017 ft 234 kts 67°
2026-05-08 05:10 49.95723 8.24299 4017 ft 233 kts 67°
2026-05-08 05:10 49.96800 8.28740 3861 ft 211 kts 67°
2026-05-08 05:10 49.97310 8.30842 3609 ft 206 kts 67°
2026-05-08 05:11 49.97811 8.32908 3338 ft 202 kts 67°
2026-05-08 05:11 49.98302 8.34938 3056 ft 200 kts 67°
2026-05-08 05:11 49.98780 8.36914 2786 ft 196 kts 67°
2026-05-08 05:11 49.99249 8.38856 2533 ft 187 kts 67°
2026-05-08 05:12 49.99687 8.40674 2281 ft 169 kts 67°
2026-05-08 05:12 50.00076 8.42288 2052 ft 150 kts 66°
2026-05-08 05:12 50.00425 8.43738 1852 ft 139 kts 66°
2026-05-08 05:12 50.00759 8.45120 1649 ft 135 kts 66°
2026-05-08 05:13 50.01085 8.46474 1424 ft 132 kts 66°
2026-05-08 05:13 50.01415 8.47831 1222 ft 137 kts 66°
2026-05-08 05:13 50.01757 8.49220 1062 ft 137 kts 67°
2026-05-08 05:13 50.02079 8.50602 787 ft 135 kts 69°
2026-05-08 05:14 50.02394 8.51937 582 ft 128 kts 68°
2026-05-08 05:14 50.02699 8.53203 413 ft 122 kts 67°
2026-05-08 05:14 50.02983 8.54371 335 ft 104 kts 69°
2026-05-08 05:14 50.03199 8.55256 346 ft 52 kts 71°
2026-05-08 05:15 50.03322 8.55691 343 ft 41 kts 52°
2026-05-08 05:15 50.03524 8.55975 354 ft 38 kts 40°
2026-05-08 05:15 50.03684 8.56261 357 ft 35 kts 71°
2026-05-08 05:15 50.03767 8.56606 353 ft 33 kts 52°
2026-05-08 05:16 50.03974 8.56710 356 ft 31 kts 10°
2026-05-08 05:16 50.04180 8.56771 360 ft 30 kts 17°
2026-05-08 05:16 50.04377 8.56832 360 ft 29 kts
2026-05-08 05:16 50.04574 8.56897 358 ft 30 kts 15°
2026-05-08 05:17 50.04635 8.56877 356 ft 6 kts 284°
2026-05-08 05:17 50.04649 8.56832 361 ft 2 kts 295°
2026-05-08 05:17 50.04654 8.56814 358 ft 2 kts 294°
2026-05-08 05:17 50.04656 8.56808 357 ft 0 kts 294°